Rogers City, MI

10:21 AM EDT on July 28, 2017 (GMT -0400)
Presque Isle County

Weather History for KPZQ - March, 2014

Change the Weather History Date:

Saturday, March 1, 2014

  Actual Average (KAPN) Record (KAPN)
Temperature  
Mean Temperature 8 °F -  
Max Temperature 13 °F 32 °F 48 °F (1983)
Min Temperature 2 °F 14 °F -23 °F (1962)
Degree Days  
Heating Degree Days 58    
Moisture  
Dew Point 1 °F    
Average Humidity 70    
Maximum Humidity 89    
Minimum Humidity 54    
Precipitation  
Precipitation 0.00 in - - ()
Sea Level Pressure  
Sea Level Pressure 30.14 in    
Wind  
Wind Speed 11 mph (WNW)    
Max Wind Speed 17 mph    
Max Gust Speed 24 mph    
Visibility 8 miles    
Events Snow    
Averages and records for this station are not official NWS values.
T = Trace of Precipitation, MM = Missing Value Source: NWS Daily Summary

Daily Weather History Graph

Daily Weather History Graph

Search for Another Location

Airport or City:

Trip Planner

Search our weather history database for the weather conditions in past years. The results will help you decide how hot, cold, wet, or windy it might be!

Date:

Astronomy

Mar. 01, 2014 Rise Set
Actual Time 7:13 AM EST 6:22 PM EST
Civil Twilight 6:43 AM EST 6:52 PM EST
Nautical Twilight 6:09 AM EST 7:26 PM EST
Astronomical Twilight 5:35 AM EST 8:00 PM EST
Moon 7:04 AM EST (3/1) 7:12 PM EST (3/1)
Length of Visible Light 12h 08m
Length of Day
11h 08m
New Moon, 0% of the Moon is Illuminated
Mar 1
New Moon
Mar 8
First Quarter
Mar 16
Full
Mar 23
Last Quarter
Mar 30
New

Hourly Weather History & Observations

Time (EST) Temp. Windchill Dew Point Humidity Pressure Visibility Wind Dir Wind Speed Gust Speed Precip Events Conditions
12:14 AM 9.7 °F -7.0 °F 6.1 °F 85% 30.02 in 3.0 mi South 15.0 mph 19.6 mph N/A Snow Light Snow
12:35 AM 10.0 °F -5.9 °F 6.8 °F 87% 30.01 in 1.8 mi South 13.8 mph 19.6 mph N/A Snow Light Snow
12:55 AM 10.4 °F -5.4 °F 7.2 °F 87% 30.01 in 2.0 mi South 13.8 mph 20.7 mph N/A Snow Light Snow
1:14 AM 10.4 °F -4.8 °F 7.3 °F 87% 30.01 in 3.0 mi South 12.7 mph 19.6 mph N/A Snow Light Snow
1:35 AM 10.8 °F -4.3 °F 7.5 °F 87% 30.01 in 3.0 mi South 12.7 mph 18.4 mph N/A Snow Light Snow
1:55 AM 11.1 °F -3.2 °F 7.7 °F 86% 30.00 in 7.0 mi South 11.5 mph - N/A Snow Light Snow
2:14 AM 11.3 °F -2.9 °F 7.7 °F 85% 30.01 in 4.0 mi South 11.5 mph 18.4 mph N/A Snow Light Snow
2:35 AM 11.3 °F -0.4 °F 8.4 °F 88% 30.00 in 1.5 mi South 8.1 mph - N/A Snow Light Snow
2:55 AM 11.3 °F 0.7 °F 8.6 °F 89% 30.00 in 2.0 mi South 6.9 mph - N/A Snow Light Snow
3:14 AM 11.3 °F 1.9 °F 8.6 °F 89% 30.00 in 1.8 mi SSW 5.8 mph - N/A Snow Light Snow
3:35 AM 11.3 °F 3.3 °F 8.6 °F 89% 30.00 in 1.5 mi South 4.6 mph - N/A Snow Light Snow
3:54 AM 11.5 °F 2.1 °F 8.6 °F 88% 30.00 in 2.5 mi SSW 5.8 mph - N/A Snow Light Snow
4:15 AM 11.7 °F 3.7 °F 8.6 °F 88% 30.00 in 4.0 mi SW 4.6 mph - N/A Snow Light Snow
4:35 AM 11.3 °F 3.3 °F 8.6 °F 89% 30.00 in 3.0 mi SSW 4.6 mph - N/A Snow Light Snow
4:54 AM 11.1 °F 3.1 °F 8.4 °F 89% 30.00 in 4.0 mi SW 4.6 mph - N/A Snow Light Snow
5:15 AM 10.4 °F 0.8 °F 7.7 °F 89% 30.00 in 10.0 mi SW 5.8 mph - N/A Snow Light Snow
5:35 AM 10.4 °F 4.0 °F 7.7 °F 89% 30.01 in 5.0 mi WSW 3.5 mph - N/A Snow Light Snow
5:54 AM 11.1 °F 1.7 °F 8.1 °F 87% 30.03 in 10.0 mi West 5.8 mph - N/A Snow Light Snow
6:15 AM 11.1 °F 0.4 °F 7.7 °F 86% 30.04 in 10.0 mi West 6.9 mph - N/A Snow Light Snow
6:35 AM 11.3 °F 0.7 °F 7.3 °F 84% 30.04 in 10.0 mi West 6.9 mph - N/A Snow Light Snow
6:54 AM 10.6 °F -1.3 °F 6.4 °F 83% 30.05 in 10.0 mi West 8.1 mph - N/A   Overcast
7:15 AM 9.9 °F -2.2 °F 5.9 °F 84% 30.05 in 7.0 mi West 8.1 mph - N/A Snow Light Snow
7:34 AM 9.5 °F -2.6 °F 5.4 °F 83% 30.06 in 10.0 mi West 8.1 mph - N/A   Clear
7:55 AM 9.5 °F -1.5 °F 5.0 °F 82% 30.07 in 10.0 mi West 6.9 mph - N/A   Clear
8:15 AM 10.0 °F -0.9 °F 5.2 °F 81% 30.08 in 10.0 mi WNW 6.9 mph - N/A   Clear
8:34 AM 9.9 °F -4.0 °F 5.0 °F 81% 30.08 in 10.0 mi WNW 10.4 mph - N/A   Clear
8:55 AM 10.4 °F -3.3 °F 4.8 °F 78% 30.08 in 10.0 mi WNW 10.4 mph 19.6 mph N/A   Scattered Clouds
9:15 AM 11.1 °F -1.6 °F 5.0 °F 76% 30.10 in 10.0 mi WNW 9.2 mph 16.1 mph N/A   Mostly Cloudy
9:35 AM 11.1 °F -2.4 °F 4.8 °F 76% 30.10 in 10.0 mi NW 10.4 mph 16.1 mph N/A   Overcast
9:55 AM 11.3 °F -4.3 °F 3.2 °F 70% 30.13 in 10.0 mi WNW 13.8 mph 23.0 mph N/A   Mostly Cloudy
10:14 AM 11.7 °F -5.0 °F 1.0 °F 62% 30.13 in 10.0 mi NW 16.1 mph 21.9 mph N/A   Scattered Clouds
10:35 AM 11.1 °F -6.2 °F -0.4 °F 60% 30.13 in 10.0 mi NW 17.3 mph 23.0 mph N/A   Scattered Clouds
10:55 AM 11.1 °F -5.1 °F -0.0 °F 61% 30.13 in 10.0 mi NW 15.0 mph 23.0 mph N/A   Scattered Clouds
11:14 AM 11.5 °F -5.8 °F -0.0 °F 60% 30.15 in 5.0 mi NW 17.3 mph 21.9 mph N/A   Haze
11:35 AM 12.6 °F -2.0 °F 0.7 °F 59% 30.15 in 10.0 mi WNW 12.7 mph 17.3 mph N/A   Clear
11:55 AM 12.2 °F -1.0 °F 1.9 °F 64% 30.14 in 10.0 mi NW 10.4 mph 18.4 mph N/A   Clear
12:14 PM 13.3 °F 1.1 °F -0.2 °F 55% 30.14 in 10.0 mi NW 9.2 mph 17.3 mph N/A   Clear
12:35 PM 13.6 °F -1.3 °F 0.9 °F 57% 30.15 in 10.0 mi NW 13.8 mph 19.6 mph N/A   Clear
12:55 PM 13.1 °F -0.7 °F 0.3 °F 57% 30.13 in 10.0 mi NNW 11.5 mph 17.3 mph N/A   Scattered Clouds
1:14 PM 13.8 °F -1.7 °F 0.1 °F 55% 30.14 in 10.0 mi NW 15.0 mph 18.4 mph N/A   Scattered Clouds
1:35 PM 12.4 °F -1.6 °F 1.0 °F 61% 30.14 in 10.0 mi NNW 11.5 mph 20.7 mph N/A   Clear
1:54 PM 13.3 °F -1.1 °F 0.3 °F 56% 30.15 in 10.0 mi NNW 12.7 mph 19.6 mph N/A   Scattered Clouds
2:15 PM 12.7 °F -1.8 °F 0.9 °F 59% 30.15 in 10.0 mi NW 12.7 mph 20.7 mph N/A   Scattered Clouds
2:34 PM 13.3 °F -0.5 °F -0.6 °F 54% 30.16 in 10.0 mi NW 11.5 mph 19.6 mph N/A   Scattered Clouds
2:55 PM 12.9 °F -0.9 °F -0.2 °F 56% 30.16 in 10.0 mi NW 11.5 mph 20.7 mph N/A   Mostly Cloudy
3:15 PM 12.2 °F -3.1 °F -0.8 °F 56% 30.17 in 10.0 mi NW 13.8 mph 19.6 mph N/A   Overcast
3:35 PM 12.0 °F -2.0 °F -1.5 °F 55% 30.18 in 10.0 mi NW 11.5 mph 17.3 mph N/A   Overcast
3:54 PM 11.8 °F -4.8 °F -1.3 °F 56% 30.18 in 10.0 mi NW 16.1 mph 24.2 mph N/A   Overcast
4:15 PM 11.3 °F -5.5 °F -1.3 °F 57% 30.19 in 10.0 mi WNW 16.1 mph 23.0 mph N/A   Overcast
4:35 PM 10.8 °F -3.6 °F -1.3 °F 58% 30.20 in 10.0 mi NW 11.5 mph 19.6 mph N/A   Overcast
4:54 PM 10.4 °F -4.8 °F -1.8 °F 58% 30.20 in 10.0 mi NW 12.7 mph 21.9 mph N/A   Overcast
5:15 PM 10.0 °F -5.2 °F -2.2 °F 58% 30.22 in 10.0 mi NW 12.7 mph 20.7 mph N/A   Overcast
5:35 PM 9.5 °F -5.2 °F -2.7 °F 58% 30.22 in 10.0 mi WNW 11.5 mph - N/A   Overcast
5:55 PM 9.3 °F -6.1 °F -3.1 °F 57% 30.22 in 10.0 mi WNW 12.7 mph 19.6 mph N/A   Overcast
6:15 PM 8.8 °F -5.3 °F -2.6 °F 60% 30.25 in 10.0 mi WNW 10.4 mph 17.3 mph N/A   Mostly Cloudy
6:34 PM 8.4 °F -6.5 °F -3.1 °F 60% 30.25 in 10.0 mi WNW 11.5 mph 19.6 mph N/A   Mostly Cloudy
6:55 PM 8.2 °F -6.8 °F -4.0 °F 58% 30.27 in 10.0 mi WNW 11.5 mph - N/A   Overcast
7:15 PM 7.7 °F -5.8 °F -4.2 °F 58% 30.28 in 10.0 mi WNW 9.2 mph - N/A   Overcast
7:34 PM 7.7 °F -7.4 °F -5.6 °F 55% 30.27 in 10.0 mi NW 11.5 mph 23.0 mph N/A   Mostly Cloudy
7:55 PM 7.0 °F -8.3 °F -3.3 °F 63% 30.28 in 10.0 mi NW 11.5 mph 19.6 mph N/A   Mostly Cloudy
8:15 PM 6.3 °F -10.0 °F -3.8 °F 63% 30.28 in 10.0 mi NNW 12.7 mph 17.3 mph N/A   Mostly Cloudy
8:34 PM 5.7 °F -11.4 °F -4.0 °F 64% 30.28 in 10.0 mi North 13.8 mph 19.6 mph N/A   Mostly Cloudy
8:55 PM 4.8 °F -13.2 °F -6.2 °F 61% 30.29 in 10.0 mi NNW 15.0 mph 21.9 mph N/A   Scattered Clouds
9:14 PM 4.5 °F -13.7 °F -6.7 °F 60% 30.30 in 10.0 mi NNW 15.0 mph 21.9 mph N/A   Scattered Clouds
9:35 PM 4.1 °F -12.0 °F -7.8 °F 58% 30.31 in 10.0 mi NNW 11.5 mph 19.6 mph N/A   Clear
9:55 PM 3.7 °F -13.2 °F -7.6 °F 59% 30.32 in 10.0 mi NNW 12.7 mph 19.6 mph N/A   Clear
10:14 PM 3.9 °F -13.0 °F -6.9 °F 61% 30.32 in 10.0 mi NNW 12.7 mph - N/A   Clear
10:35 PM 3.2 °F -13.1 °F -7.1 °F 62% 30.34 in 10.0 mi NNW 11.5 mph 16.1 mph N/A   Clear
10:54 PM 2.8 °F -15.0 °F -7.4 °F 62% 30.33 in 10.0 mi NNW 13.8 mph 19.6 mph N/A   Clear
11:15 PM 2.7 °F -13.8 °F -6.9 °F 64% 30.32 in 10.0 mi NNW 11.5 mph 16.1 mph N/A   Clear
11:34 PM 2.3 °F -11.4 °F -7.6 °F 63% 30.32 in 10.0 mi NNW 8.1 mph - N/A   Clear
11:55 PM 2.1 °F -13.6 °F -7.6 °F 64% 30.32 in 10.0 mi NW 10.4 mph 18.4 mph N/A   Clear